Location: Cold Norton
(51.6667°N, 0.6667°E)
Time: 06:51:03
(UTC+00:00)

Cosmos 371 Rocket - Pass Details

Date: 18 November 2025
Orbit: 674 x 690 km, 74.0° (Epoch: 12 December)

Event Time Altitude Azimuth Distance (km) Brightness Sun altitude
Rises 18:43:21 0° 205° (SSW) 3,034 6.9 -24.5°
Reaches altitude 10° 18:45:38 10° 205° (SSW) 2,126 6.1 -24.8°
Maximum altitude 18:50:26 85° 295° (WNW) 697 3.2 -25.6°
Enters shadow 18:50:36 82° 345° (NNW) 700 3.2 -25.6°
